Date,TemperatureHighF,TemperatureAvgF,TemperatureLowF,DewpointHighF,DewpointAvgF,DewpointLowF,HumidityHigh,HumidityAvg,HumidityLow,PressureMaxIn,PressureMinIn,WindSpeedMaxMPH,WindSpeedAvgMPH,GustSpeedMaxMPH,PrecipitationSumIn
2013-1-1,53,37,30,32,28,22,90,70,40,30.33,30.19,4,0,6,0.00
2013-1-2,62,40,32,36,24,12,83,57,16,30.31,30.10,4,0,4,0.00
2013-1-3,61,40,32,35,29,18,82,65,31,30.32,30.15,4,0,6,89.19
2013-1-4,61,43,35,36,30,24,84,62,30,30.34,30.15,4,0,4,0.00
2013-1-5,60,43,36,39,33,20,88,73,27,30.30,30.12,4,0,6,0.00
2013-1-6,53,40,34,43,38,34,99,92,61,30.22,30.08,3,0,4,0.05
2013-1-7,60,43,34,41,36,30,96,77,37,30.24,30.13,3,0,4,0.01
2013-1-8,64,44,35,46,39,33,99,85,50,30.28,30.10,3,0,6,0.00
2013-1-9,51,43,32,42,38,31,99,83,57,30.22,29.91,8,1,14,0.43
2013-1-10,46,33,28,42,29,24,98,86,60,30.20,30.03,4,0,6,0.00
2013-1-11,44,32,25,33,24,-8,93,75,15,30.31,30.11,46,2,46,0.01
2013-1-13,28,28,28,4,2,1,35,32,30,30.26,30.25,1,0,2,0.50
2013-1-14,53,34,26,19,8,-1,61,36,14,30.44,30.26,4,1,5,0.00
2013-1-15,54,36,27,29,22,16,75,58,27,30.55,30.37,4,0,4,0.00
2013-1-16,65,44,34,31,22,10,72,48,13,30.49,30.24,4,1,5,0.00
2013-1-17,71,53,41,35,25,6,64,41,10,30.27,30.09,4,1,4,0.00
2013-1-18,73,49,39,33,24,6,65,43,10,30.29,30.07,4,1,5,0.00
2013-1-19,74,49,38,34,25,10,62,45,10,30.32,30.11,4,1,5,0.00
2013-1-20,69,49,39,34,24,6,75,45,10,30.30,30.07,4,1,5,0.00
2013-1-21,72,50,39,33,24,10,73,42,10,30.25,30.07,4,1,6,0.00
2013-1-22,74,51,40,36,24,9,63,40,10,30.21,29.96,4,1,6,0.00
2013-1-23,64,52,47,47,27,10,99,46,12,30.14,29.99,4,0,6,0.05
2013-1-24,58,52,48,51,48,44,99,87,71,30.21,30.09,3,0,4,0.04
2013-1-25,67,54,49,62,51,49,99,93,65,30.21,30.03,3,0,4,0.13
2013-1-26,51,46,37,51,45,-17,99,95,5,30.07,29.94,4,0,6,89.91
2013-1-27,52,38,32,41,35,30,99,89,54,30.19,30.04,4,0,5,0.09
2013-1-28,56,40,31,34,30,25,93,70,36,30.32,30.12,4,0,7,0.00
2013-1-29,53,39,33,37,32,30,90,78,49,30.36,30.28,2,0,4,0.00
2013-2-1,57,49,46,41,39,35,78,70,55,30.28,30.15,1,0,2,0.00
2013-2-2,74,52,43,44,36,12,82,60,10,30.31,30.13,2,0,4,0.00
2013-2-3,67,49,39,44,36,28,90,62,28,30.26,30.07,4,0,4,0.00
2013-2-4,70,50,40,43,34,11,86,57,11,30.19,30.02,5,1,7,0.00
2013-2-5,58,45,37,46,39,33,99,80,56,30.18,29.99,5,1,8,0.00
2013-2-6,64,44,33,38,32,17,99,68,16,30.20,30.03,4,1,6,0.00
2013-2-7,47,40,34,44,37,32,99,90,73,30.18,30.02,5,1,7,0.03
2013-2-8,56,38,28,34,25,10,99,64,16,30.02,29.84,4,1,8,0.00
2013-2-9,57,40,30,28,22,-35,73,52,2,30.14,29.96,6,1,8,0.00
2013-2-10,64,42,30,36,24,11,79,52,16,30.16,29.93,4,1,8,0.00
2013-2-11,62,44,33,30,21,6,70,43,11,30.29,30.07,6,1,8,90.03
2013-2-12,62,44,33,36,31,24,88,62,35,30.40,30.25,5,1,7,0.00
2013-2-13,65,46,34,40,35,30,90,69,35,30.38,30.16,4,1,6,0.00
2013-2-14,73,54,40,43,35,22,75,51,22,30.27,30.10,5,1,6,0.00
2013-2-15,74,54,44,40,30,11,69,44,10,30.32,30.16,4,1,6,0.00
2013-2-16,69,53,43,39,32,14,78,49,12,30.32,30.04,4,1,5,0.00
2013-2-17,68,50,39,40,36,28,81,62,26,30.09,29.89,4,1,7,0.00
2013-2-18,60,46,38,42,37,28,91,73,41,30.23,29.85,5,1,8,90.03
2013-2-19,38,34,29,36,33,29,99,95,86,29.95,29.75,7,1,10,0.25
2013-2-20,59,39,28,42,31,24,99,76,29,30.07,29.84,4,0,7,0.14
2013-2-21,60,42,28,37,31,15,99,68,18,30.20,30.01,5,1,8,0.90
2013-2-22,61,45,33,36,31,25,77,60,28,30.27,30.12,4,1,6,0.00
2013-2-23,58,46,40,41,35,15,99,70,21,30.23,30.09,7,2,8,0.00
2013-2-24,42,41,38,29,28,27,70,62,54,30.31,30.21,1,0,2,0.00
2013-2-25,64,46,35,36,28,22,73,53,22,30.33,30.13,5,1,7,0.00
2013-2-26,72,50,36,30,13,0,72,30,10,30.26,30.03,4,1,6,0.00
2013-2-27,69,50,39,33,17,9,58,31,10,30.40,30.20,5,1,7,0.00
2013-2-28,72,54,41,40,32,9,76,48,12,30.46,30.30,4,1,7,0.00
2013-3-1,72,53,43,46,41,37,81,68,30,30.47,30.25,4,0,4,0.00
2013-3-2,73,58,48,44,38,21,78,53,15,30.31,30.06,4,1,7,0.00
2013-3-3,59,51,43,50,46,42,99,82,61,30.10,30.00,3,0,4,0.06
2013-3-4,71,51,38,46,43,36,99,77,28,30.14,29.95,5,1,8,0.01
2013-3-5,57,48,43,45,41,29,95,76,49,30.25,29.84,6,1,10,90.49
2013-3-6,49,41,36,43,38,35,99,91,65,30.08,29.86,8,2,17,0.53
2013-3-7,53,42,34,42,36,33,99,84,50,30.04,29.88,4,0,6,0.01
2013-3-8,62,46,34,40,36,27,99,73,29,30.04,29.75,8,1,10,0.01
2013-3-9,69,49,34,40,31,15,98,59,14,30.36,30.04,5,1,8,0.00
2013-3-10,67,50,37,42,33,19,88,54,32,30.40,30.20,5,1,6,0.00
2013-3-11,74,54,41,45,41,38,96,66,29,30.32,30.06,4,1,6,0.00
2013-3-12,79,58,44,48,44,40,91,66,30,30.18,30.00,4,1,102,0.00
2013-3-13,82,61,48,48,42,28,84,56,16,30.21,30.03,4,1,8,0.00
2013-3-14,79,62,52,49,42,33,77,52,20,30.15,30.04,9,1,9,91.14
2013-3-15,79,59,50,48,43,21,76,57,12,30.14,29.95,4,0,5,0.00
2013-3-16,77,57,45,48,37,10,80,53,10,30.10,29.92,6,1,8,0.00
2013-3-17,71,50,41,40,34,29,77,58,26,30.14,29.98,6,0,8,0.00
2013-3-18,47,44,43,35,33,28,67,63,55,30.10,30.07,1,0,2,0.00
2013-3-19,67,56,46,50,43,31,99,68,29,30.15,30.04,4,1,6,0.23
2013-3-20,52,49,46,51,48,-3,99,99,12,30.13,30.08,4,0,7,0.91
2013-3-21,65,51,44,51,44,23,99,80,48,30.11,29.95,5,1,102,0.01
2013-3-22,64,48,36,42,23,3,94,44,10,30.11,29.96,4,1,8,0.00
2013-3-23,68,50,37,34,24,6,68,41,10,30.13,29.98,4,1,5,0.00
2013-3-24,74,54,41,40,33,21,70,50,14,30.13,29.91,6,1,8,0.03
2013-3-25,71,55,43,44,40,35,84,59,30,30.02,29.86,5,1,8,0.00
2013-3-26,69,54,43,44,41,38,92,65,33,29.99,29.87,4,1,7,0.00
2013-3-27,70,55,45,49,44,41,88,69,36,30.02,29.87,8,1,10,0.00
2013-3-28,65,53,49,52,47,45,90,81,57,30.13,30.02,3,0,4,0.01
2013-3-29,79,59,45,48,43,36,92,60,22,30.14,29.96,5,1,6,0.01
2013-3-30,78,61,50,50,46,42,89,62,32,30.07,29.90,4,1,6,0.01
2013-3-31,66,52,47,53,48,44,99,87,49,30.10,29.96,5,1,7,0.64
2013-4-1,62,49,44,49,45,43,99,89,60,30.19,30.08,4,0,6,0.02
2013-4-2,70,54,41,49,45,41,99,77,41,30.20,30.03,6,1,7,0.00
2013-4-3,78,58,45,55,50,44,99,78,38,30.17,29.95,6,1,8,0.00
2013-4-4,54,52,45,53,50,40,99,96,64,30.12,29.99,5,1,7,0.47
2013-4-5,64,53,48,52,48,45,99,86,53,30.18,30.08,4,0,8,0.02
2013-4-6,64,53,47,51,48,45,99,86,51,30.19,30.09,5,1,8,0.00
2013-4-7,65,53,43,51,48,42,99,84,52,30.15,29.82,7,1,10,0.02
2013-4-8,68,50,40,45,34,10,99,65,11,30.04,29.75,5,1,8,93.92
2013-4-9,78,55,38,38,27,12,71,38,10,30.13,29.93,5,1,8,0.00
2013-4-10,84,64,48,49,39,22,70,42,19,30.19,29.97,5,1,8,0.00
2013-4-11,78,61,50,52,44,32,92,60,22,30.00,29.78,4,1,6,0.00
2013-4-12,78,60,48,51,40,26,75,49,19,29.90,29.75,5,0,7,0.00
2013-4-13,78,60,49,48,42,34,76,54,21,29.89,29.72,4,0,6,0.00
2013-4-14,70,56,44,42,34,10,78,51,10,29.88,29.72,4,1,7,0.00
2013-4-15,50,45,42,43,43,41,99,92,71,29.88,29.79,2,0,3,0.00
2013-4-17,72,55,37,27,16,4,50,25,10,30.28,30.09,4,0,5,0.01
2013-4-18,74,56,41,38,24,10,63,34,10,30.29,30.14,4,0,5,0.01
2013-4-19,80,60,46,44,37,27,68,47,18,30.26,30.04,4,0,4,93.92
2013-4-20,82,62,49,44,38,28,75,46,17,30.13,29.90,8,0,5,93.92
2013-4-21,83,64,50,47,40,23,72,46,12,30.07,29.90,4,0,4,0.00
2013-4-22,87,67,53,53,41,20,69,44,10,30.01,29.79,3,0,4,0.01
2013-4-23,84,66,54,37,21,5,51,21,10,29.92,29.79,3,0,4,0.00
2013-4-24,91,68,51,38,25,10,60,26,10,29.91,29.67,4,0,5,0.00
2013-4-25,76,60,46,50,42,25,81,53,30,30.11,29.86,4,0,4,0.00
2013-4-26,82,62,49,52,47,42,85,62,28,30.19,30.06,3,0,4,0.01
2013-4-27,88,68,53,54,49,44,78,55,30,30.21,30.01,4,0,5,0.00
2013-4-28,88,69,54,53,45,36,62,44,21,30.08,29.84,4,1,6,0.00
2013-4-29,70,60,56,55,50,49,81,70,59,29.90,29.85,1,0,2,0.00
2013-5-20,82,81,79,40,40,38,23,23,22,29.92,29.91,3,3,5,0.00
2013-5-21,75,65,53,44,40,24,69,41,16,29.92,29.79,7,1,11,0.00
2013-5-22,62,46,37,42,27,17,70,50,18,29.97,29.83,2,0,4,0.00
2013-5-23,46,42,40,29,28,26,63,58,46,29.93,29.90,2,1,3,0.00
2013-5-24,73,62,45,40,36,31,66,39,23,29.99,29.85,5,1,8,0.01
2013-5-25,72,60,48,45,40,28,69,49,21,30.00,29.89,5,1,8,0.00
2013-5-26,71,58,47,50,45,39,90,64,37,30.09,29.97,5,1,8,0.00
2013-5-27,60,55,49,53,48,45,98,80,64,30.10,29.99,5,1,8,0.03
2013-5-28,71,58,51,55,52,50,99,82,51,30.00,29.85,4,1,6,0.12
2013-5-29,74,62,53,55,51,45,97,71,43,29.93,29.81,5,1,8,0.00
2013-5-30,78,65,52,52,46,34,83,53,23,29.98,29.85,5,1,8,0.00
2013-5-31,87,70,53,50,45,40,64,43,23,29.99,29.81,5,1,8,0.00
2013-6-1,90,75,61,53,45,36,55,37,18,29.90,29.70,4,1,7,0.00
2013-6-2,90,76,62,56,49,43,58,41,21,29.78,29.56,4,1,7,0.00
2013-6-3,89,76,63,58,52,-3,66,44,25,29.76,29.63,4,1,114,0.24
2013-6-4,84,72,63,60,55,51,71,57,41,29.86,29.76,4,1,6,0.00
2013-6-5,86,72,59,62,58,56,90,63,43,29.94,29.77,4,1,6,0.00
2013-6-6,89,76,64,63,60,55,82,60,37,29.89,29.73,4,1,5,0.00
2013-6-7,100,82,67,63,54,45,73,41,19,29.85,29.63,4,1,6,0.00
2013-6-8,104,87,72,63,57,45,51,37,15,29.72,29.54,4,1,6,0.00
2013-6-9,83,75,63,61,56,51,67,53,42,29.82,29.66,8,2,9,0.00
2013-6-10,65,58,53,53,51,49,86,77,65,29.86,29.78,2,0,4,0.00
2013-6-18,71,63,53,51,47,40,85,56,34,29.97,29.84,8,2,11,0.00
2013-6-19,73,60,47,47,40,24,88,53,17,30.02,29.92,5,1,8,0.00
2013-6-20,79,65,52,44,39,32,58,41,22,29.99,29.73,5,1,8,0.02
2013-6-21,82,69,56,47,41,37,55,38,23,29.96,29.82,5,1,8,0.00
2013-6-22,86,73,60,48,42,27,56,36,14,29.91,29.74,6,1,8,0.00
2013-6-23,72,64,59,58,51,43,90,64,45,29.83,29.75,6,1,11,0.00
2013-6-24,60,57,55,58,56,54,99,96,90,29.94,29.77,4,0,6,0.55
2013-6-25,65,60,55,64,60,54,99,98,95,30.00,29.91,5,0,8,0.51
2013-6-26,82,70,60,65,62,59,99,78,49,30.04,29.93,4,1,7,0.00
2013-6-27,91,75,62,66,62,58,95,67,34,30.07,29.93,4,1,7,1.34
2013-6-28,98,80,68,63,57,38,78,50,14,30.02,29.81,5,1,7,0.00
2013-6-29,101,82,70,65,59,54,64,47,24,29.92,29.71,4,1,6,0.00
2013-6-30,100,84,71,65,58,51,65,44,20,29.82,29.65,4,1,6,0.00
2013-7-1,102,86,72,67,60,44,65,44,15,29.81,29.71,4,1,6,0.00
2013-7-2,100,87,78,67,62,55,63,44,31,29.86,29.74,4,1,8,0.00
2013-7-3,101,85,73,68,63,58,74,50,29,29.87,29.64,4,1,5,0.00
2013-7-4,100,86,75,68,62,47,66,46,17,29.73,29.55,4,1,7,0.00
2013-7-5,88,79,68,59,52,39,61,41,22,29.71,29.59,4,1,8,0.00
2013-7-6,89,75,64,55,51,34,65,45,16,29.75,29.62,6,1,8,0.00
2013-7-7,91,77,63,55,49,39,62,41,22,29.82,29.67,4,1,7,0.00
2013-7-8,91,76,65,57,49,37,61,42,17,29.96,29.81,5,1,10,0.00
2013-7-9,97,80,66,53,42,29,55,30,11,30.01,29.85,4,1,8,0.00
2013-7-10,94,80,68,51,43,37,43,28,16,29.94,29.77,7,2,11,0.00
2013-7-11,90,76,64,53,40,24,55,31,11,29.88,29.74,6,1,8,0.00
2013-7-12,87,74,62,48,41,30,49,33,14,29.89,29.76,7,2,9,0.00
2013-7-13,91,76,62,48,43,30,50,33,15,29.92,29.80,5,1,8,0.00
2013-7-14,92,77,64,55,48,41,55,38,18,29.94,29.77,4,1,6,0.00
2013-7-15,89,76,66,57,48,35,55,39,20,29.87,29.69,6,1,8,0.00
2013-7-16,81,68,60,51,40,29,63,38,20,29.86,29.79,4,1,5,0.00
2013-7-24,93,86,74,60,57,52,57,39,28,29.88,29.78,4,1,6,0.00
2013-7-25,96,82,71,62,59,56,62,46,27,29.93,29.80,5,1,7,0.00
2013-7-26,95,83,74,64,58,48,65,45,26,29.99,29.69,5,1,6,0.00
2013-7-27,91,77,71,59,55,50,59,49,33,29.96,29.81,4,1,6,0.00
2013-7-28,91,82,69,57,52,46,58,37,24,29.79,29.65,5,2,8,0.00
2013-7-29,85,74,65,54,48,37,63,41,18,29.97,29.76,8,1,12,0.00
2013-7-30,87,69,61,52,46,42,58,46,22,30.03,29.95,4,1,6,0.00
2013-8-4,72,69,66,46,45,43,46,42,35,29.95,29.91,2,0,2,0.00
2013-8-5,88,74,62,54,46,42,53,39,22,29.97,29.82,5,1,8,0.00
2013-8-6,87,73,62,52,47,39,56,41,22,29.95,29.83,6,1,8,0.00
2013-8-7,74,65,57,56,52,49,81,64,46,30.01,29.95,4,1,6,0.00
2013-8-8,82,72,61,54,49,41,64,45,26,29.95,29.83,5,1,8,0.00
2013-8-9,81,67,58,54,49,46,69,53,32,29.94,29.81,63,1,63,1.34
2013-8-11,86,77,65,51,47,41,55,35,23,29.94,29.82,5,2,8,0.00
2013-8-12,87,73,61,51,46,35,59,41,20,29.96,29.83,7,1,9,0.00
2013-8-13,93,75,62,52,44,35,53,36,14,29.97,29.80,4,1,7,0.00
2013-8-14,94,77,64,49,43,32,48,33,13,29.94,29.77,6,1,8,0.00
2013-8-15,92,77,65,53,44,29,49,33,12,29.93,29.80,6,1,10,0.00
2013-8-16,94,78,63,55,43,28,55,33,11,29.97,29.82,5,1,8,0.00
2013-8-17,94,78,65,54,47,31,55,37,13,29.96,29.74,4,1,7,0.00
2013-8-18,97,80,67,57,52,46,53,39,22,29.87,29.69,5,1,8,0.00
2013-8-19,97,82,73,62,56,52,50,40,28,29.86,29.69,2,0,4,0.00
2013-8-20,94,82,72,61,57,54,60,44,29,29.81,29.68,4,1,8,0.00
2013-8-21,92,77,68,62,54,44,73,47,22,29.87,29.73,4,1,7,0.00
2013-8-22,89,76,65,57,49,40,65,42,22,29.88,29.75,6,1,8,0.00
2013-8-23,88,72,61,52,46,41,54,41,23,29.88,29.70,5,1,6,0.00
2013-8-24,84,71,62,54,48,40,61,45,23,29.83,29.73,8,2,12,0.00
2013-8-25,83,70,60,57,52,-100,75,55,1,29.92,29.80,6,1,8,1.35
2013-8-26,86,70,58,56,53,49,86,58,33,29.98,29.81,7,1,9,0.00
2013-8-27,88,74,62,54,49,42,65,44,24,29.90,29.71,5,1,8,0.00
2013-8-28,89,75,63,54,47,-100,62,40,22,29.90,29.77,5,1,11,1.35
2013-8-29,89,74,63,52,48,43,62,42,23,30.01,29.89,7,1,9,0.00
2013-8-30,86,70,63,52,47,44,57,46,23,30.03,29.94,4,1,6,0.00
2013-9-1,83,76,72,55,52,49,47,44,35,29.86,29.78,3,0,4,0.00
2013-9-2,72,68,62,67,60,49,99,80,44,29.96,29.83,2,0,4,0.44
2013-9-3,81,70,63,64,59,51,99,71,43,29.94,29.84,5,1,8,0.00
2013-9-4,84,70,60,60,54,48,93,60,37,29.99,29.85,4,1,7,0.00
2013-9-5,82,68,57,54,48,39,84,52,22,29.99,29.85,8,2,10,0.00
2013-9-6,89,72,57,50,45,40,62,41,22,29.99,29.77,5,1,8,0.00
2013-9-7,92,76,64,54,48,44,61,40,21,29.89,29.72,4,1,8,0.00
2013-9-8,95,78,65,51,44,34,55,34,13,29.87,29.66,5,1,8,0.00
2013-9-9,96,80,67,52,46,37,45,33,16,29.79,29.58,5,1,8,0.00
2013-9-10,91,78,66,56,48,39,63,36,21,29.84,29.63,5,2,8,0.00
2013-9-11,89,70,62,57,53,46,76,57,28,29.94,29.66,4,1,7,0.00
2013-9-12,86,71,60,56,53,48,78,56,32,29.95,29.77,6,1,8,0.00
2013-9-13,89,75,64,61,57,54,71,55,37,29.86,29.65,4,1,6,0.00
2013-9-14,91,76,66,61,58,55,71,55,34,29.76,29.61,4,1,7,0.00
2013-9-15,85,72,63,57,46,26,69,44,14,29.83,29.70,5,1,8,0.00
2013-9-16,87,70,58,55,47,39,66,46,25,29.87,29.68,4,1,7,0.00
2013-9-17,76,65,58,54,49,46,76,58,41,29.88,29.75,7,1,60,1.80
2013-9-18,82,66,54,48,43,36,71,46,23,29.88,29.73,7,1,8,0.00
2013-9-19,87,70,56,45,41,37,57,39,18,29.87,29.69,5,1,7,0.00
2013-9-20,81,68,59,57,42,24,90,45,15,29.84,29.71,7,2,11,0.00
2013-9-21,61,54,47,57,53,47,99,95,77,29.91,29.80,4,1,7,0.49
2013-9-22,68,55,45,52,48,44,99,81,54,30.01,29.89,5,1,8,0.00
2013-9-23,78,62,51,55,51,47,90,69,43,30.02,29.87,4,1,8,0.00
2013-9-24,72,62,55,55,51,45,87,69,43,29.96,29.80,7,1,13,0.00
2013-9-25,71,55,50,51,42,28,99,65,26,29.90,29.76,4,1,8,2.29
2013-9-26,74,58,45,38,31,23,63,39,17,29.99,29.76,4,0,6,0.00
2013-9-27,75,59,48,42,34,27,64,42,22,30.09,29.96,4,1,6,0.00
2013-9-28,80,63,51,44,38,30,69,44,20,30.12,29.94,6,1,9,0.00
2013-9-29,73,63,56,56,48,36,88,59,40,30.09,29.99,7,1,11,0.00
2013-9-30,60,58,58,56,56,55,94,92,88,30.07,30.04,4,0,7,0.00
2013-10-2,75,63,53,42,39,32,62,42,24,29.99,29.86,4,1,6,0.01
2013-10-3,78,58,45,41,30,17,72,41,12,30.03,29.82,4,1,7,0.00
2013-10-4,84,66,55,31,20,15,25,18,11,30.13,29.94,7,2,14,0.00
2013-10-5,80,64,52,54,22,15,97,21,12,30.22,30.08,4,1,6,0.00
2013-10-6,84,65,52,33,28,21,44,27,11,30.18,29.89,4,1,5,0.00
2013-10-7,81,65,54,34,26,16,37,24,11,30.03,29.82,4,1,6,0.00
2013-10-8,71,60,52,37,31,23,56,35,17,29.91,29.68,5,1,7,0.00
2013-10-9,70,58,50,42,38,34,60,47,32,29.76,29.55,4,1,7,0.01
2013-10-10,68,54,45,46,41,36,75,62,43,30.02,29.76,4,1,8,0.00
2013-10-11,73,57,46,45,42,40,80,59,33,30.08,29.92,4,1,8,0.00
2013-10-12,74,58,48,45,40,37,74,55,32,30.02,29.83,5,1,10,0.00
2013-10-13,73,57,47,45,41,37,77,57,31,30.07,29.89,4,1,6,0.00
2013-10-14,75,58,49,40,34,30,58,43,23,30.13,29.97,4,1,6,0.01
2013-10-15,80,62,51,37,28,19,49,30,13,30.06,29.89,4,1,6,0.00
2013-10-16,69,55,51,31,20,15,35,25,21,30.13,30.01,2,1,4,0.00
2013-10-17,79,67,55,36,31,22,46,28,15,30.09,29.91,5,1,8,0.01
2013-10-18,82,64,53,38,31,-10,46,31,4,30.06,29.92,8,1,50,0.00
2013-10-19,83,65,54,38,33,25,45,33,14,30.09,29.94,4,1,6,0.00
2013-10-20,81,65,55,40,36,30,50,36,21,30.05,29.84,5,1,7,0.00
2013-10-21,80,64,54,41,37,32,51,38,22,30.00,29.85,4,1,6,0.00
2013-10-22,84,67,56,37,28,17,44,26,12,30.02,29.85,4,1,6,0.00
2013-10-23,87,67,56,33,25,21,33,22,11,29.95,29.76,4,1,6,0.00
2013-10-24,79,64,54,39,31,22,47,30,15,30.07,29.89,4,1,5,0.00
2013-10-25,81,63,53,40,30,19,50,31,14,30.15,30.00,3,1,6,0.00
2013-10-26,81,63,51,39,34,26,46,35,19,30.16,29.97,4,1,5,0.00
2013-10-27,74,58,43,45,34,25,98,46,20,30.03,29.59,9,2,13,0.15
2013-10-28,49,45,41,46,43,41,99,94,81,29.87,29.60,4,0,6,0.02
2013-10-29,52,47,42,46,44,41,99,89,74,30.08,29.87,4,0,5,0.00
2013-10-30,67,48,38,44,40,-10,99,76,39,30.14,30.02,11,0,53,0.04
2013-10-31,69,52,41,45,42,38,94,70,38,30.20,30.03,4,1,6,0.00
2013-11-1,78,58,47,44,38,30,82,53,21,30.20,29.99,3,1,6,0.00
2013-11-2,71,58,48,45,39,30,71,52,25,30.07,29.84,5,1,7,0.00
2013-11-3,63,50,43,46,37,26,93,63,26,30.09,29.88,4,1,7,0.00
2013-11-4,71,52,40,33,24,12,72,38,13,30.09,29.84,4,1,7,0.00
2013-11-5,68,52,42,35,27,18,62,40,23,30.28,30.07,4,1,5,0.00
2013-11-6,72,58,46,41,36,32,64,46,27,30.30,30.14,4,1,6,0.00
2013-11-7,78,59,51,40,31,17,60,38,12,30.21,30.00,4,1,8,0.00
2013-11-8,74,58,48,38,32,24,61,40,20,30.12,29.90,4,1,8,0.00
2013-11-9,78,58,48,41,38,33,67,49,23,30.06,29.91,4,1,5,0.00
2013-11-10,78,59,50,37,31,19,58,38,13,30.12,29.97,4,2,6,0.00
2013-11-11,77,59,50,32,25,16,43,28,13,30.21,30.00,4,1,5,0.00
2013-11-12,71,60,54,39,32,24,53,35,20,30.27,30.15,3,1,4,0.00
2013-11-13,77,61,52,42,37,34,56,43,25,30.26,30.03,3,1,5,0.00
2013-11-14,70,56,49,45,39,33,77,54,34,30.11,29.84,4,1,6,0.00
2013-11-15,66,51,43,44,37,28,86,61,27,29.85,29.64,5,1,7,0.00
2013-11-16,64,49,42,39,35,33,75,61,37,29.96,29.75,5,1,7,0.00
2013-11-17,66,49,41,42,37,32,79,65,33,30.13,29.95,4,1,6,0.00
2013-11-18,62,50,42,45,41,37,86,73,45,30.16,30.02,5,1,7,0.00
2013-11-19,55,49,44,51,47,43,99,93,81,30.12,29.97,2,0,3,2.96
2013-11-20,51,50,47,51,49,47,99,99,99,29.97,29.85,3,0,5,0.34
2013-11-21,62,49,43,47,34,19,99,61,28,30.05,29.87,5,1,11,0.01
2013-11-22,70,53,41,23,14,7,41,22,12,30.08,29.90,3,0,7,0.00
2013-11-23,75,50,41,39,27,8,83,45,21,30.17,29.95,3,1,6,3.38
2013-11-24,62,46,38,43,37,30,91,72,43,30.30,30.13,3,1,4,0.00
2013-11-25,66,48,38,43,38,32,90,71,33,30.36,30.21,4,1,5,0.00
2013-11-26,68,50,42,46,41,37,87,71,44,30.33,30.05,2,1,4,0.00
2013-11-27,71,54,45,40,35,28,75,51,22,30.09,29.80,4,1,5,0.00
2013-11-28,69,53,46,40,37,32,73,56,27,30.12,29.89,4,1,6,0.00
2013-11-29,84,52,44,41,38,33,77,61,32,30.26,30.06,10,1,41,0.00
2013-11-30,70,52,44,43,39,35,81,63,34,30.30,30.12,3,1,5,0.00
2013-12-1,68,53,44,43,39,34,77,62,37,30.36,30.19,4,1,5,0.00
2013-12-2,64,52,44,45,40,34,83,63,40,30.26,29.90,4,1,10,0.00
2013-12-3,52,42,32,47,33,15,99,74,31,29.94,29.78,5,1,10,0.03
2013-12-4,47,34,28,22,17,12,69,52,29,30.11,29.93,4,1,8,0.02
2013-12-5,48,33,26,20,14,8,67,49,23,30.22,30.05,3,1,5,0.00
2013-12-6,41,32,26,31,23,16,99,70,44,30.23,29.93,11,1,11,3.41
2013-12-7,41,30,22,35,28,21,99,94,70,30.29,29.92,2,0,2,0.01
2013-12-8,45,28,19,34,22,17,93,82,55,30.36,30.19,2,1,4,0.08
2013-12-9,49,32,24,30,23,14,89,69,44,30.50,30.33,2,1,4,0.12
2013-12-10,46,32,29,31,24,10,88,73,24,30.50,30.31,2,1,4,0.01
2013-12-12,65,49,39,34,27,17,69,47,18,30.29,30.10,3,1,4,0.00
2013-12-13,64,46,36,32,26,16,67,47,22,30.34,30.17,3,1,5,0.00
2013-12-14,66,48,37,36,30,25,69,53,27,30.44,30.25,3,1,4,0.00
2013-12-15,70,51,42,37,30,21,63,47,20,30.43,30.20,3,2,4,3.66
2013-12-16,85,56,46,43,34,28,63,45,21,30.30,30.02,3,2,4,0.00
2013-12-17,73,59,51,39,29,17,54,35,12,30.21,30.03,4,1,6,0.00
2013-12-18,67,53,46,40,34,29,75,51,27,30.05,29.71,3,1,4,0.02
2013-12-19,62,46,36,40,29,19,92,55,22,29.93,29.68,4,0,6,0.00
2013-12-20,61,45,35,29,20,8,59,38,20,30.01,29.87,3,1,5,0.00
2013-12-21,64,49,38,39,34,29,83,59,37,30.30,29.90,3,1,5,0.00
2013-12-22,65,50,39,41,35,29,74,58,39,30.32,30.12,3,1,4,0.00
2013-12-23,68,51,42,41,36,31,74,58,29,30.43,30.28,3,1,4,0.00
2013-12-24,71,54,45,42,34,16,67,48,22,30.37,30.14,117,1,4,3.66
2013-12-25,74,54,43,39,28,16,73,40,20,30.33,30.15,3,1,4,0.00
2013-12-26,77,55,45,33,25,17,48,34,14,30.31,30.11,3,2,4,0.00
2013-12-27,67,52,44,37,27,17,62,39,18,30.29,30.11,3,1,4,0.00
2013-12-28,75,54,42,37,18,12,53,26,11,30.16,29.93,3,1,4,3.66
2013-12-29,65,50,42,33,22,10,52,34,23,30.24,30.08,3,1,4,0.00
2013-12-30,66,52,44,30,24,18,49,35,17,30.28,30.15,3,1,4,0.00
2013-12-31,70,52,45,32,26,18,48,37,17,30.27,30.09,3,1,4,0.00
2014-1-1,67,52,45,37,30,23,66,44,23,30.21,30.08,3,1,4,0.00
2014-1-2,69,54,46,40,36,31,66,53,26,30.21,30.03,3,1,4,0.00